Wind_Speed
18 19 19 20 20 20 21 20 20 21 22 22 23 23 23 24 25 26 27 28 30 32 34 36 36 35 35 34 33 30 28 26 25 25 24 25 26 26 27 26 29 29 29 29
17 18 19 19 20 19 19 18 18 19 20 20 21 22 22 22 24 25 26 27 28 31 34 36 38 37 37 36 34 32 30 28 26 25 25 25 26 27 28 28 28 30 30 31
16 18 18 18 18 18 18 17 17 17 18 18 18 19 20 20 21 23 24 25 27 29 33 36 38 40 39 38 36 34 32 30 29 27 26 26 26 26 28 29 29 30 31 31
16 17 17 17 17 17 16 17 17 17 16 15 17 17 17 18 18 20 22 24 25 27 31 35 38 41 41 40 39 37 34 32 31 29 28 26 26 26 27 28 28 30 30 29
16 16 17 17 17 18 16 17 17 16 17 17 16 16 16 17 17 18 20 22 24 25 28 33 36 39 41 41 40 38 36 34 33 31 29 27 26 25 26 27 27 29 30 31
15 16 16 16 17 17 16 16 15 16 15 16 15 16 16 16 16 17 19 20 22 24 26 30 33 37 40 40 40 39 37 35 34 32 31 30 28 27 27 27 26 27 29 30
15 16 16 16 16 15 15 13 14 13 14 15 15 16 16 16 16 17 18 20 20 21 24 27 30 33 36 38 39 39 37 35 33 32 31 30 29 28 27 26 24 23 24 27
13 13 16 15 14 14 13 12 12 13 13 13 15 15 16 15 15 15 15 16 18 20 22 25 28 31 33 35 37 37 36 35 34 32 30 30 28 27 26 25 24 22 22 23
13 12 14 14 14 13 12 12 12 13 14 13 13 15 14 14 14 14 14 15 17 18 20 22 26 29 31 32 34 34 34 34 33 32 31 30 28 26 24 23 23 20 20 21
12 12 12 13 13 13 11 11 11 10 12 13 13 14 13 12 14 14 14 16 17 17 17 19 22 26 29 31 32 32 33 33 33 32 30 30 27 26 25 25 24 23 21 21
12 12 12 13 12 12 12 10 9 9 11 12 12 13 11 10 10 11 12 12 14 17 18 19 21 23 26 28 30 30 31 31 31 31 30 29 28 27 27 26 25 24 23 22
11 11 11 12 11 11 10 9 9 9 10 11 12 13 11 11 11 11 11 10 12 14 17 18 19 21 22 24 27 28 29 30 30 29 30 30 29 29 28 27 26 24 24 24
11 10 10 10 11 10 9 9 9 9 10 11 13 14 12 13 13 13 13 12 12 13 14 16 19 19 21 22 25 27 28 29 29 30 31 31 30 29 28 26 26 26 26 26
10 9 9 9 9 9 9 8 9 10 11 12 13 14 13 13 13 13 13 12 11 12 14 16 18 20 21 21 23 24 26 27 27 28 28 28 27 27 26 26 26 26 26 26
10 9 9 9 8 8 8 8 9 11 12 13 13 14 13 13 13 13 12 12 11 13 14 14 16 18 20 21 21 22 23 23 24 26 26 26 26 26 26 26 26 26 26 26
9 9 8 8 7 8 8 9 10 11 12 12 13 13 13 13 12 12 12 12 12 13 14 15 16 18 19 20 21 21 22 22 23 23 24 25 25 26 26 26 26 26 27 28
8 7 7 7 8 8 9 8 9 10 11 11 12 12 12 12 12 12 11 12 12 13 14 15 16 17 16 17 20 22 23 22 22 23 23 24 25 25 26 26 27 27 28 28
6 5 5 6 7 7 8 8 9 10 11 11 12 12 12 12 11 10 10 10 11 12 11 13 14 15 16 17 19 20 20 21 21 22 22 22 23 23 23 24 25 26 25 26
5 5 5 5 6 7 8 8 9 10 10 10 10 10 10 10 9 9 9 10 10 10 11 11 12 12 13 15 16 17 17 18 19 19 20 20 21 21 22 23 23 24 24 24
5 5 5 5 6 7 8 8 9 9 9 9 9 9 9 9 9 8 8 8 8 8 9 10 10 11 12 12 13 14 14 15 16 17 18 18 18 19 20 21 22 22 23 23
5 4 4 4 5 7 7 8 8 8 9 9 8 8 8 8 8 8 8 8 8 8 9 10 11 11 11 12 12 12 13 13 14 15 16 17 18 18 19 20 20 21 21 22
4 3 3 4 5 6 7 7 7 8 8 8 7 6 6 6 7 7 7 7 7 8 9 10 11 11 11 12 12 13 13 13 14 15 16 17 17 18 19 19 20 20 20 20
4 3 3 3 4 5 5 6 6 7 7 6 5 4 4 4 5 5 5 6 7 7 8 8 8 9 10 10 11 12 12 13 13 14 15 15 16 17 17 18 18 19 19 18
4 3 2 2 2 3 4 5 5 6 6 6 5 4 4 3 3 3 3 3 4 5 6 7 7 8 9 9 10 11 11 12 12 12 12 13 14 14 15 15 16 16 16 16
4 3 1 1 1 3 4 4 5 6 7 7 6 6 5 4 4 3 2 2 2 3 4 5 6 7 8 8 9 9 10 11 11 11 11 12 12 12 13 13 13 14 14 14
5 3 2 1 2 3 4 5 6 7 8 8 7 7 6 6 5 4 4 3 2 3 3 3 4 5 6 7 8 8 9 10 10 10 11 11 11 11 12 12 11 11 11 11
Wind_Direction
288 291 291 290 289 287 287 284 281 279 279 277 273 269 263 256 250 246 242 238 233 229 226 224 225 227 229 231 232 234 239 241 239 238 240 242 242 241 241 243 242 240 241 242
292 293 292 292 292 291 290 287 284 281 279 277 274 270 266 259 252 247 244 240 235 228 225 224 224 225 227 230 233 235 239 243 246 245 243 244 243 241 243 247 246 244 244 246
292 293 295 295 295 294 293 287 282 280 281 282 279 277 271 264 256 250 246 243 238 231 227 225 224 225 227 231 234 237 239 243 248 249 250 253 249 247 247 249 248 247 247 246
293 294 296 297 296 295 293 288 283 281 283 281 277 274 271 266 258 254 248 244 240 234 228 225 224 225 226 229 233 237 239 244 249 251 254 257 258 256 254 254 253 249 249 248
296 297 298 298 295 293 289 285 284 281 281 277 278 273 269 268 259 256 251 246 242 237 229 226 225 225 226 228 232 235 239 242 247 252 256 260 261 262 261 259 258 252 250 250
296 298 298 297 296 295 293 290 290 289 285 279 274 269 268 265 258 256 250 245 243 238 233 228 226 225 226 228 231 235 238 241 245 250 255 259 263 262 263 263 260 256 251 248
300 301 299 298 298 297 296 294 292 289 283 280 270 266 265 265 261 258 252 246 244 241 235 229 226 225 226 227 231 234 238 242 246 250 254 258 262 261 260 258 260 257 253 252
297 295 295 297 296 292 291 285 278 277 279 280 274 269 269 273 266 260 251 244 241 241 237 231 226 225 225 227 230 234 236 241 245 248 252 257 259 260 259 261 261 261 258 255
297 292 293 294 293 293 290 284 274 270 275 278 277 277 277 276 272 266 250 242 240 240 237 232 229 227 227 228 230 233 235 239 242 246 249 253 256 256 257 261 262 262 262 257
298 299 299 298 296 296 288 278 276 273 276 274 278 280 279 277 276 269 259 246 240 237 232 230 227 228 228 228 230 232 234 238 242 246 249 252 254 256 260 260 258 257 257 254
296 301 302 302 300 296 293 289 281 268 264 273 278 279 286 286 282 280 266 255 242 233 230 231 229 228 230 230 230 232 234 237 241 245 248 252 255 258 257 252 254 255 255 252
301 304 302 301 298 293 289 283 278 271 275 279 276 278 287 287 288 283 276 264 249 235 230 232 229 228 229 232 232 234 235 238 241 244 247 249 251 255 255 252 251 252 252 252
304 307 308 307 307 301 293 286 280 276 274 275 279 282 279 283 286 284 279 269 250 238 235 234 229 228 230 231 233 235 237 240 242 245 247 248 249 250 250 248 248 250 251 253
303 305 300 290 286 293 293 287 282 279 279 279 281 283 283 281 280 280 278 272 250 238 237 235 230 229 230 232 232 234 236 237 239 242 243 245 246 246 246 248 249 250 254 255
298 301 298 293 289 291 292 287 283 284 283 279 280 281 282 279 281 281 279 269 256 247 244 238 234 230 230 232 232 232 234 235 238 240 242 243 243 244 247 250 250 252 255 256
292 294 295 297 295 295 292 288 286 287 286 285 283 284 282 279 281 279 271 266 256 252 249 243 236 232 234 233 234 236 238 239 240 241 240 241 244 246 249 250 251 253 257 259
289 291 292 299 298 299 297 294 296 295 293 292 289 287 286 286 281 278 271 263 257 255 253 244 237 234 236 237 235 235 238 240 241 241 242 246 247 249 252 252 253 255 258 261
280 285 291 300 303 303 300 298 300 300 297 294 291 288 286 284 281 275 267 259 254 252 250 243 234 234 238 238 239 237 238 241 243 245 246 247 250 252 254 255 257 258 259 262
267 276 285 296 304 306 307 306 303 304 304 300 294 289 285 283 280 276 270 265 257 250 245 244 246 248 244 242 241 243 241 242 243 246 249 251 252 254 256 258 259 260 261 264
257 269 281 299 306 307 306 309 310 311 311 309 300 292 286 283 280 274 262 260 255 245 245 251 252 248 245 243 243 245 244 244 245 249 250 252 253 255 257 259 261 263 265 267
249 265 278 297 305 306 310 310 314 315 315 313 307 297 286 281 276 267 261 259 256 248 245 243 245 243 243 246 247 247 247 248 252 253 255 257 259 260 263 264 265 265 267 268
237 256 273 289 299 307 312 313 316 319 320 320 313 302 288 282 279 274 270 266 263 254 253 250 247 249 248 251 254 256 255 257 259 259 260 260 262 263 264 264 266 267 267 268
219 233 257 278 295 310 320 325 330 332 336 336 330 324 308 294 285 279 280 274 272 263 257 253 247 248 251 253 253 254 255 259 262 263 262 262 263 264 264 266 267 268 268 268
205 216 239 277 310 326 337 343 350 354 357 1 356 345 334 333 328 316 308 293 278 264 258 256 254 255 257 256 257 259 261 263 264 265 266 267 267 267 268 269 270 270 269 268
185 188 203 314 357 5 9 8 9 13 14 12 10 9 13 13 7 357 351 327 300 274 263 266 264 260 258 257 259 261 261 262 263 264 266 268 270 271 273 274 274 272 269 268
174 164 140 89 59 45 35 30 29 29 28 26 25 26 27 25 27 29 22 10 354 329 305 279 268 262 256 260 262 265 266 266 265 264 267 270 272 274 274 274 273 272 269 266
Height
5795 5795 5794 5793 5792 5792 5790 5789 5789 5787 5785 5785 5785 5785 5785 5786 5787 5789 5791 5794 5797 5801 5804 5808 5812 5815 5818 5821 5824 5826 5828 5828 5830 5833 5835 5837 5837 5839 5841 5841 5843 5844 5845 5847
5791 5790 5789 5788 5787 5786 5785 5784 5784 5782 5780 5780 5779 5779 5779 5779 5781 5783 5785 5787 5790 5793 5797 5801 5805 5809 5812 5815 5818 5821 5822 5824 5826 5829 5830 5831 5832 5833 5835 5835 5837 5839 5840 5841
5787 5787 5784 5783 5782 5781 5780 5779 5778 5777 5776 5775 5775 5775 5774 5774 5775 5777 5779 5781 5783 5787 5790 5794 5798 5802 5805 5809 5812 5814 5817 5820 5821 5823 5824 5824 5825 5827 5829 5830 5831 5833 5835 5835
5783 5781 5780 5779 5778 5776 5776 5774 5773 5772 5772 5773 5772 5772 5771 5770 5770 5771 5772 5774 5777 5780 5783 5786 5790 5794 5798 5802 5805 5808 5811 5814 5816 5817 5819 5819 5820 5821 5823 5825 5826 5827 5827 5828
5779 5777 5776 5775 5774 5772 5771 5769 5768 5768 5767 5767 5767 5767 5768 5766 5766 5766 5767 5769 5771 5773 5776 5779 5783 5787 5791 5795 5798 5802 5805 5808 5810 5811 5813 5814 5815 5816 5817 5818 5819 5820 5821 5822
5775 5773 5772 5770 5769 5767 5766 5765 5764 5763 5764 5764 5764 5764 5764 5762 5761 5761 5762 5763 5765 5767 5770 5772 5776 5779 5783 5788 5792 5795 5798 5801 5803 5806 5807 5809 5810 5810 5811 5812 5813 5814 5814 5815
5772 5770 5768 5766 5765 5763 5762 5762 5763 5762 5762 5761 5760 5759 5759 5757 5756 5756 5757 5758 5759 5761 5763 5766 5769 5773 5776 5780 5784 5788 5791 5794 5797 5799 5801 5803 5804 5804 5805 5806 5807 5808 5808 5809
5769 5769 5765 5763 5762 5761 5759 5759 5760 5761 5760 5758 5755 5755 5754 5752 5752 5752 5752 5753 5754 5756 5758 5760 5763 5766 5770 5774 5777 5781 5784 5788 5791 5793 5795 5797 5798 5798 5799 5801 5802 5802 5803 5804
5765 5764 5761 5759 5757 5757 5756 5755 5756 5755 5754 5754 5753 5751 5749 5748 5748 5748 5748 5748 5749 5751 5753 5755 5758 5761 5764 5767 5771 5775 5778 5781 5785 5787 5789 5791 5792 5794 5795 5795 5797 5798 5798 5799
5761 5760 5758 5756 5754 5753 5753 5752 5751 5751 5751 5751 5750 5748 5747 5745 5744 5743 5743 5743 5745 5746 5748 5750 5752 5755 5758 5762 5765 5768 5771 5775 5778 5781 5783 5785 5786 5788 5789 5790 5791 5792 5793 5793
5757 5756 5755 5753 5751 5751 5749 5749 5747 5748 5748 5748 5747 5748 5743 5742 5741 5739 5739 5739 5740 5742 5744 5746 5748 5751 5753 5756 5760 5763 5766 5768 5772 5774 5776 5778 5780 5781 5782 5783 5785 5786 5787 5787
5753 5753 5751 5750 5749 5747 5746 5746 5745 5745 5745 5744 5743 5745 5741 5739 5738 5736 5736 5736 5736 5738 5739 5741 5743 5746 5748 5751 5754 5757 5760 5762 5765 5768 5770 5771 5773 5775 5776 5777 5779 5780 5781 5781
5751 5750 5749 5748 5748 5745 5744 5743 5742 5742 5741 5741 5740 5742 5737 5736 5734 5733 5733 5732 5732 5734 5735 5737 5739 5741 5743 5746 5748 5751 5753 5756 5759 5761 5763 5765 5767 5768 5769 5771 5772 5773 5774 5775
5748 5747 5747 5747 5745 5742 5741 5740 5739 5739 5738 5737 5737 5735 5734 5732 5731 5731 5730 5729 5729 5730 5731 5733 5734 5736 5739 5741 5743 5745 5747 5749 5752 5754 5756 5758 5760 5761 5762 5764 5765 5766 5767 5768
5745 5744 5743 5742 5741 5740 5739 5738 5737 5736 5735 5734 5733 5731 5730 5729 5728 5727 5727 5726 5726 5727 5728 5729 5730 5732 5734 5736 5737 5740 5742 5744 5746 5748 5750 5751 5753 5754 5755 5757 5758 5759 5760 5760
5742 5742 5741 5740 5739 5738 5737 5736 5734 5733 5731 5730 5729 5728 5726 5725 5724 5723 5723 5723 5723 5724 5724 5725 5726 5727 5729 5731 5733 5735 5736 5738 5740 5742 5743 5745 5746 5748 5749 5750 5751 5752 5752 5753
5740 5739 5739 5738 5737 5736 5735 5734 5732 5730 5729 5727 5726 5725 5723 5722 5721 5720 5719 5719 5720 5720 5720 5721 5722 5723 5724 5726 5728 5729 5731 5733 5734 5736 5737 5739 5740 5741 5742 5743 5744 5744 5745 5745
5738 5737 5737 5736 5736 5734 5735 5731 5729 5728 5726 5724 5722 5721 5720 5718 5717 5716 5716 5716 5716 5716 5717 5717 5718 5719 5721 5722 5723 5724 5726 5727 5729 5730 5731 5732 5734 5734 5735 5736 5736 5737 5737 5737
5736 5736 5735 5735 5734 5733 5732 5729 5727 5725 5723 5721 5719 5718 5717 5716 5715 5714 5713 5713 5713 5713 5713 5714 5715 5716 5717 5717 5718 5719 5721 5722 5723 5724 5726 5726 5727 5728 5729 5729 5730 5730 5730 5730
5735 5734 5734 5733 5732 5731 5731 5727 5725 5724 5721 5719 5717 5715 5714 5713 5713 5713 5711 5710 5710 5710 5711 5711 5712 5713 5713 5714 5714 5716 5717 5718 5719 5720 5721 5721 5722 5723 5723 5723 5723 5723 5723 5723
5733 5733 5732 5731 5730 5729 5728 5725 5724 5723 5721 5717 5715 5713 5711 5710 5710 5710 5708 5707 5707 5708 5708 5708 5709 5709 5710 5711 5711 5712 5713 5714 5715 5715 5716 5716 5717 5717 5717 5717 5717 5717 5717 5717
5732 5732 5731 5730 5729 5730 5726 5723 5722 5721 5717 5715 5713 5711 5709 5708 5707 5706 5705 5705 5705 5705 5705 5705 5706 5706 5707 5707 5708 5709 5709 5710 5710 5711 5711 5711 5712 5712 5712 5712 5711 5711 5711 5710
5731 5731 5730 5730 5730 5727 5724 5722 5720 5718 5716 5713 5711 5709 5708 5706 5705 5704 5703 5703 5702 5702 5702 5702 5703 5703 5703 5704 5704 5705 5705 5706 5706 5706 5706 5706 5706 5706 5706 5706 5706 5705 5705 5704
5730 5729 5729 5728 5726 5725 5723 5721 5719 5717 5715 5712 5710 5708 5707 5705 5704 5703 5702 5701 5701 5700 5700 5700 5700 5700 5700 5700 5701 5701 5701 5702 5702 5702 5702 5702 5702 5701 5701 5701 5700 5700 5699 5699
5729 5729 5728 5727 5726 5724 5723 5721 5719 5716 5714 5712 5710 5708 5706 5705 5703 5702 5701 5700 5699 5699 5698 5698 5697 5697 5697 5697 5697 5698 5698 5698 5698 5698 5698 5698 5697 5697 5697 5696 5696 5695 5694 5694
5728 5729 5728 5727 5726 5725 5723 5721 5719 5717 5714 5712 5710 5708 5706 5704 5703 5702 5701 5700 5699 5697 5696 5696 5695 5695 5695 5695 5695 5695 5695 5694 5694 5694 5694 5694 5694 5693 5692 5692 5691 5690 5690 5690